Showing default

SOYUZ MS-27, 63520

Orbit data source: Space-Track

SOYUZ MS-27, 63520 is a payload satellite owned by RKKE (CIS) in LEO that was launched on Tue, 08 Apr 2025 UTC via a SOYUZ-2-1A launch vehicle from the Tyuratam Missile And Space Complex (TTMTR). Payload-class satellites include a variety of spacecraft equipped with specific instruments for various scientific and technological missions. These include communications satellites like Starlink; space stations such as the ISS; scientific satellites like the Hubble; Earth observation satellites from companies like Planet Labs, Umbra, and HawkEye 360; GPS; miniature CubeSats for education and research; and military/defense satellites.

Loading next visibility...
Identifier
63520, 2025-072A
Orbit
LEO
Country
Flag of CISCIS
Related business
Manufacturer
RKKE
Mission
Operational Civil Spaceship
Bus & Motor
7K-S A48, SA
Mass
7,152 kg wet, 2,900 kg dry
Launch date (UTC)
2025-04-08 (7 months ago)
Launch vehicle
SOYUZ-2-1A
Launch site
Tyuratam Missile And Space Complex (TTMTR)
Object type
Payload
Rocket body
Debris
Shape & HBR
Cyl + Cone + Sphere + 2 Pan, 14.5 m
Radar Cross Section
25.344 m², Large (>1 m²)

Expand to show TLE details & history
Last TLE update: 22 hours ago

TLE from 22 hours ago
0 SOYUZ MS-27
1 63520U 25072A   25304.16626396  .00017194  00000-0  31236-3 0  9995
2 63520  51.6343 353.2496 0004911 359.9780   0.1208 15.49645314 20205
Epoch: 2025-10-31T03:59Z
TLE epoch observation values (Epoch: 2025-10-31T03:59:25.206Z)
Latitude
0.00002°
Longitude
-106.32001°
Altitude
415.166 km
Speed
7.665 km/s
True Right ascension
23h 32m 59s
True Declination
0° 00' 00"
Sunlit
Object was in full shadow at epoch
Visualization orbit readout
Latitude
Unknown
Longitude
Unknown
Altitude
Unknown
Speed
Unknown
Apparent Right ascension
Unknown
Apparent Declination
Unknown
Sunlit
N/A
Visualization observer readout
Local Sidereal Time
22:00:03
Azimuth
Unknown
Elevation
Unknown
Doppler factor
Unknown
Orbital elements
Apogee altitude
421.609 km
Perigee altitude
414.934 km
Semi-major axis
6,796.409 km
Eccentricity
0.00049
Inclination
51.6343°
RAAN
353.2496°
Arg. of periapsis
359.978°
True anomaly
0.12092°
Mean anomaly
0.1208°
Eccentric anomaly
0.12086°
Mean motion
3.87368 °/min
Orbital period
92.93 mins
BSTAR
0.00031236
Loading maneuver chart data...
Computing Atmospheric mass density...
Loading historical data...
Loading historical data...
Loading historical data...
Loading historical data...
Loading historical data...
Loading historical data...
Loading historical data...
Other satellites on launch #72 in the year 2025 (2025-04-08 UTC)

Documentation

Showing up to 5 results
|